User: anonymous   Login
Location: Chevoux
(46.3801°N, 4.9476°E)
Time: 00:13:36
(UTC+00:00)
Language:

CZ-2C R/B - Orbit

View from above orbital plane
View from above orbital plane
View from above satellite
View from above satellite

Ground track
Ground track

The orbit data is extracted from the following two-line orbital elements,

1 28480U 04046B   21103.00747690  .00000060  00000-0  37499-4 0  9998
2 28480  98.0542 120.2775 0142992  58.0810 332.0979 14.25749073853129
Epoch (UTC): 13 April 2021 00:10:46
Eccentricity: 0.0142992
inclination: 98.0542°
perigee height: 703 km
apogee height: 909 km
right ascension of ascending node: 120.2775°
argument of perigee: 58.0810°
revolutions per day: 14.25749073
mean anomaly at epoch: 332.0979°
orbit number at epoch: 85312

The dashed part of the orbit path shows where the satellite is in the earth's shadow,  

DLR